Torna al catalogo

DELTA 1 DEB

AttivoPO
NORAD 37645·DEBRIS·🇺🇸 United States

Lanciato Mar 5, 1978 da Vandenberg Space Force Base

Loading…

Prossimi Passaggi (prossime 24 ore)

TLE

AggiornatoSource: Space-Track

Epoca: Sep 13, 2026, 09:00 UTC

1 37645U 78026JG  26256.37540240  .00000108  00000-0  37175-4 0  9990
2 37645  98.7382 295.3384 0049668 219.5253 152.8087 14.54388664754318

Traccia DELTA 1 DEB in tempo reale con AllMySat

Download on the App Store